Regional Weather Roundup
Issued by NWS Wakefield, VA

Home | Current Version | Previous Version | Text Only | Print | Product List | Glossary Off
Versions: 1 2 3 4 5 6 7 8 9 10 11 12 13 14 15 16 17 18 19 20 21 22 23 24 25 26 27 28

000
ASUS41 KAKQ 180215
RWRAKQ

REGIONAL WEATHER ROUNDUP
NATIONAL WEATHER SERVICE WAKEFIELD VA
900 PM EST TUE JAN 17 2017

Note: "fair" indicates few or no clouds below 12,000 feet with no
significant weather and/or obstructions to visibility. * = Denotes
station may not report precipitation (e.g., rain,snow,etc.),
thunder or fog.

VAZ042-051-052>054-056-180300-
NORTHERN VIRGINIA

CITY           SKY/WX    TMP DP  RH WIND       PRES   REMARKS
WASH NATIONAL  CLOUDY    50  50 100 CALM      29.94F FOG
DULLES         CLOUDY    52  50  93 S7        29.92F
FORT BELVOIR   CLOUDY    50  48  93 CALM      29.93F FOG
QUANTICO       CLOUDY    57  54  89 SW10      29.95F
FREDERICKSBRG* CLOUDY    57  56  97 SW14      29.95F
STAFFORD*      CLOUDY    55  54  95 SW5       29.99S
WARRENTON      CLOUDY    55  50  84 S8        29.93F
CULPEPER*      CLOUDY    55  53  93 SW12      29.94F
MANASSAS*      CLOUDY   N/A N/A N/A SW6       29.93F
LEESBURG*      FOG       46  46 100 N3        29.93F VSB 1/4
WINCHESTER     FOG       39  39 100 CALM      29.91S VSB 1/4
FRONT ROYAL*   CLOUDY    43  43 100 CALM      29.89F VSB<1/4
LURAY*         FAIR      55  54  94 SW10      29.89F
$$

VAZ048-049-060>072-079>083-180300-
CENTRAL AND SOUTH CENTRAL VIRGINIA

CITY           SKY/WX    TMP DP  RH WIND       PRES   REMARKS
RICHMOND       CLOUDY    57  54  89 SW12      30.01F
CHESTERFIELD*  CLOUDY    57  41  54 SW8       30.02F
PETERSBURG*    MOCLDY    55  54  94 SW6       30.03F
HANOVER        CLOUDY    57  51  80 S8        30.01F
TAPPAHANNOCK*  CLOUDY    57  52  83 SW9       30.00S
QUINTON*       MOCLDY    56  55  96 SW7       30.01S
CHARLOTTSVILLE CLOUDY    55  51  86 SW5       29.96F
GORDONSVILLE*  CLOUDY    55  53  93 SW13      29.96S
ORANGE*          N/A     55  55 100 S14       29.98S
LOUISA*        CLOUDY    61  55  82 SW6       29.95F
BUMPASS*       CLOUDY    56  55  94 SW10      29.98S
FARMVILLE*     CLOUDY    59  56  89 SW12      29.99F
CREWE*         MOCLDY    57  57 100 SW5       30.01F
FORT PICKETT*  FAIR      56  53  88 SW9       30.02S
CHASE CITY*    FAIR      55  54  94 SW3       30.03F
CLARKSVILLE*   FAIR      57  57 100 SW8       30.04F
SOUTH HILL*    CLOUDY    56  55  99 S9        30.08F
LAWRENCEVILLE* FAIR      57  55  92 MISG      30.03F
EMPORIA*       MOCLDY    54  54 100 S3        30.06S
$$

VAZ088>098-180300-
SOUTHEAST VIRGINIA

CITY           SKY/WX    TMP DP  RH WIND       PRES   REMARKS
NORFOLK        LGT RAIN  58  53  84 SW14      30.03F
VIRGINIA BEACH LGT RAIN  59  53  80 SW14G22   30.03F
NORFOLK NAVAL  CLOUDY    59  53  80 SW12      30.05S
WEST POINT*    CLOUDY    56  53  88 SW6       30.03S
SALUDA*        FAIR      58  55  88 SW8       29.99F
NEWPORT NEWS   CLOUDY    57  53  86 SW10      30.03S
LANGLEY AFB    CLOUDY    57  55  91 SW14      30.02F
FORT EUSTIS    CLOUDY    56  53  86 VRB5      30.01S
WILLIAMSBURG*  MOCLDY    59  54  82 SW12G17   30.03F
HR EXEC AP*    CLOUDY    57  54  88 SW9       30.02F
FRANKLIN*      CLOUDY    56  54  90 SW6       30.06S
US460-WAKEFLD  CLOUDY    57  54  89 SW6       30.04S
$$

VAZ020-022-025-037-045-180300-
WEST CENTRAL AND SOUTHWEST VIRGINIA

CITY           SKY/WX    TMP DP  RH WIND       PRES   REMARKS
STAUNTON*      CLOUDY    55  51  86 S9        29.96F
WAYNESBORO*    CLOUDY    58  53  81 SW8       29.95F
HOT SPRINGS VA LGT RAIN  54  54 100 W18G28    29.97F VSB 1/2
LYNCHBURG      CLOUDY    55  53  93 SW7       30.01F
DANVILLE       MOCLDY    53  53 100 SW5       30.04F FOG
SOUTH BOSTON*  FAIR      56  55  95 SW7       30.04S
MARTINSVILLE   CLOUDY    53  51  95 CALM      30.07F FOG
ROANOKE        CLOUDY    52  51  97 CALM      30.01F
BLACKSBURG     CLOUDY    55  53  94 SW3       30.04F
DUBLIN*        CLOUDY    57  56  94 SW14      30.02F
MARION*        DRIZZLE   57  56  95 W18G26    30.05F
HILLSVILLE*    CLOUDY    54  53  96 S3        30.03F
RICHLANDS*     LGT RAIN N/A N/A N/A SW13G30   30.03F
WISE*          CLOUDY    59  59 100 SW20G32   30.04S
ABINGDON*      CLOUDY    59  59 100 W8        30.05F FOG
$$

MDZ021>025-VAZ099-100-180300-
SOUTHERN MARYLAND AND THE DELMARVA PENINSULA

CITY           SKY/WX    TMP DP  RH WIND       PRES   REMARKS
PATUXENT RIVER CLOUDY    55  52  89 SW13      29.94F
BAY BRIDGE APT CLOUDY    43  43 100 SE5       29.94F FOG
LEONARDTOWN    CLOUDY    54  50  87 SW12      29.96F
DOVER          CLOUDY    43  43 100 NE3       29.94F FOG
GEORGETOWN     CLOUDY    49  48  97 CALM      29.97F FOG
EASTON         MOCLDY    52  48  87 S5        29.99S
CAMBRIDGE      CLOUDY    46  46 100 CALM      29.96S
SALISBURY      MOCLDY    53  51  93 SW8       29.97S
OCEAN CITY     CLOUDY    48  48 100 SW8       29.97F
WALLOPS ISLAND CLOUDY    46  46 100 S3        29.98F FOG
ACCOMACK*      CLOUDY    59  54  83 SW14G24   29.99F
$$

NCZ012>017-030>032-180300-
NORTH CENTRAL AND EASTERN NORTH CAROLINA

CITY           SKY/WX    TMP DP  RH WIND       PRES   REMARKS
ROANOKE RAPIDS MOCLDY    55  55 100 SW12      30.06F
RALEIGH        CLOUDY    60  56  86 SW9       30.07F
ELIZABETH CITY LGT RAIN  58  54  86 S12       30.08S
AHOSKIE*         N/A     57  55  94 S5        30.06F
EDENTON*       CLOUDY    60  56  85 SW7       30.09S
CURRITUCK*     RAIN      59  56  89 SW8       30.07S
KILL DEVIL HLS NOT AVBL
MANTEO         LGT RAIN  53  53 100 SW10      30.10R
CAPE HATTERAS  CLOUDY    60  57  89 SW12      30.11S FOG
TARBORO*       NOT AVBL
GOLDSBORO      CLOUDY    61  60  98 SW10      30.09F
WASHINGTON     MOCLDY    62  55  80 SW9       30.10F
GREENVILLE     CLOUDY    61  55  82 SW7       30.11S
NEW BERN       MOCLDY    58  55  90 SW5       30.13F
WILMINGTON     MOCLDY    59  57  93 SW6       30.16S
$$

VAZ048-180300-
ELSEWHERE

CITY           SKY/WX    TMP DP  RH WIND       PRES   REMARKS
HARRISBURG PA  CLOUDY    40  40 100 CALM      29.94F FOG
BALTIMORE      FOG       44  44 100 NE5       29.94F VSB 1/4
ANNAPOLIS      CLOUDY    45  43  93 SE7       29.93F FOG
ANDREWS AFB    CLOUDY    52  51  95 SW5       29.92F
PHILADELPHIA   CLOUDY    43  42  97 E6        29.99S FOG
HENDERSON NC   CLOUDY    54  53  95 SW10      30.04F
GREENSBORO     CLOUDY    57  56  96 SW8       30.06S
ROCKY MOUNT    MOCLDY    59  56  89 S9        30.08F
$$

VAZ100-180300-
MARINE

STATION/POSITION TIME  TEMP    WIND        PRES    WAVE   SWELL
                       AIR SEA DIR/SP/G            HT/PER HT/PER
                 (UTC) (F)     (DEG/KT/KT) (MB)    (FT/S) (FT/S)
CAPE MAY NJ      0148   45 40  150/  6/  9 1014.4F
LEWES DE         0148   50 41  220/  4/  6 1014.4F
OCEAN-CITY-INLET 0148   45 43  220/ 10/ 11 1015.2F
WACHAPREAGUE VA  0148   54 47  230/  5/ 10 1015.7F
THOMAS POINT MD  0100   43 39  280/  2/  2   N/A
GOOSES REEF MD   0150   46     200/  4/  6 1014.8S
COVE POINT MD    0148   55     240/ 12/ 17 1014.6F
SOLOMONS ISLAND  0148   53 41  230/ 13/ 14   N/A
BISHOPS HEAD MD  0148   46 41  200/ 10/ 11 1014.9S
PINEY POINT MD   0142          260/  8/ 10   N/A
POTOMAC MD       0150   52     240/ 14/ 17 1013.5F
CAMBRIDGE MD     0148   50 39  190/  1/  4 1013.5F
LEWISETTA VA     0148   57     240/ 14/ 19 1014.3F
RAPPAHANNOCK LGT 0142          190/ 18/ 19 1016.2F
STINGRAY PT      0150   49     220/  6/  6 1016.1F
YORK RVR RNG VA  0148   54     230/ 14/ 15 1015.5F
YORKTOWN VA      0148   58 43  230/ 12/ 17 1015.9F
JAMESTOWN VA     0150   56     230/  8/ 14   N/A
DOMINION TERM VA 0148   52     230/  8/  9 1017.1F
KIPTOPEKE VA     0142      43  210/  6/  8   N/A
CHES BAY BRIDGE  0148   57 43  230/ 15/ 17 1016.4F
CAPE HENRY VA    0148   59     210/  9/ 14   N/A
WILLOUBY STN VA  0148   55     230/ 12/ 12 1017.6F
S CRANEY ISL VA  0148   57     210/  7/ 12 1016.7F
CAPE HENRY BUOY  0142      47                N/A     2/ 9
OFFSHORE WE BUOY 0151      49                N/A     3/ 3
64NM E OF VA BCH 0050   58 56  210/ 14/ 17 1017.7    3/ 4   2/ 8
DUCK PIER NC     0148   58 44  210/ 11/ 14 1018.1F
44100 DUCK FRF   0135      47                N/A     2/10
44056 DUCK FRF   0130      45                N/A     2/ 8
OREGON INLET NC  0142   54 49  210/ 17/ 20 1018.8S
HATTERAS NC      0148   62 54  220/ 10/ 13 1019.4S
DIAMOND SHLS NC  0050   70 73  230/ 17/ 21 1019.6    3/ 4   2/ 9
CAPE LOOKOUT NC  0100   64     220/ 11/ 14 1020.3F
$$




USA.gov is the U.S. government's official web portal to all federal, state and local government web resources and services.